Location: Bastelaar
(51.0950°N, 3.8602°E)
Time: 19:56:20
(UTC+00:00)

BlueWalker 3 - Pass Details

Date: 28 January 2026
Orbit: 450 x 461 km, 53.2° (Epoch: 11 February)

Event Time Altitude Azimuth Distance (km) Brightness Sun altitude
Rises 19:40:24 0° 283° (WNW) 2,459 6.6 -30.0°
Reaches altitude 10° 19:42:33 10° 286° (WNW) 1,585 5.4 -30.3°
Enters shadow 19:43:28 17° 289° (WNW) 1,222 4.6 -30.5°
